www.pogodaiklimat.ru

Погода и климат >> Архив погоды >> Коста-Рика >> Либерия


ПОГОДА в Либерии

  • Прогноз погоды в Либерии
  • Монитор погоды в Либерии

АРХИВ ПОГОДЫ в Либерии

Время (UTC), дата Ветер
(напр.,м/с)
 
Видим.   Явления Облачность Т
(С)
Тd
(С)
f
(%)
Тe
(С)
Тes
(С)
Комфортность P
(гПа)
Po
(гПа)
Тmin
(С)
Tmax
(С)
R
(мм)
R24
(мм)
S
(см)
03 9.09 ЮВ 5 20 км {дождь} 9/9 750 м
[Sc]
+24.6 +24.1 97 +34 +34 очень
душно
1013.8 1004.4
06 9.09 ЮВ 5 20 км 10/4 450 м
[Sc As op]
+23.6 +23.2 98 +32 +32 очень
душно
1013.9 1004.6 +20.9 +34.0
12 9.09 С 3 100 м в посл. час туман ?/? +22.5 +22.2 98 +30 +30 очень
душно
1013.0 1003.5 +20.9 +34.0 21
15 9.09 штиль 0 20 км {туман} 10/1 30 м
[St As op Cs]
+25.9 +23.4 86 +35 +43 очень
душно
1014.6 1005.2
18 9.09 Ю 3 20 км 10/4 600 м
[Cu med, cong Cs]
+29.1 +23.4 71 +39 +48 очень
душно
1012.9 1003.5 +21.3 +28.7
21 9.09 Ю 5 20 км 10/1 900 м
[Cu med, cong Cs]
+29.0 +23.9 74 +40 +44 очень
душно
1010.7 1001.3
00 10.09 ЮЗ 3 20 км 10/0
[Cs]
+26.9 +24.9 89 +39 +39 очень
душно
1011.2 1001.8 +21.3 +29.1
03 10.09 штиль 0 20 км 9/0
[Ac trans]
+25.4 +24.4 94 +35 +35 очень
душно
1013.2 1003.8
06 10.09 В 3 20 км 6/0
[Ac trans]
+24.5 +23.6 95 +33 +33 очень
душно
1013.2 1003.8 +21.3 +29.1
12 10.09 штиль 0 200 м в посл. час туман 10/0
[]
+23.1 +22.8 98 +32 +32 очень
душно
1012.0 1002.6 +22.0 +29.1
15 10.09 З 5 20 км {туман} 1/1 450 м
[Cu med, cong]
+27.9 +24.4 81 +39 +45 очень
душно
1012.6 1003.2
18 10.09 З 6 20 км 3/3 1350 м
[Cu med, cong]
+30.8 +24.4 69 +43 +49 опасность
перегрева
1011.1 1001.8 +21.9 +31.3
21 10.09 В 10 20 км 6/3 900 м
[Cu med, cong Ci sp]
+33.7 +22.7 53 +44 +44 опасность
перегрева
1008.6 999.3
00 11.09 В 6 20 км 6/0
[Ci sp]
+29.2 +22.3 66 +38 +38 очень
душно
1009.0 999.6 +21.9 +33.9
03 11.09 ЮВ 7 20 км ясно +26.7 +22.0 75 +34 +34 очень
душно
1011.1 1001.8
06 11.09 СВ 3 20 км 3/3 1350 м
[Cu med, cong]
+26.6 +22.4 78 +35 +35 очень
душно
1010.5 1001.2 +21.9 +33.9
12 11.09 СВ 3 20 км дождь 10/3 900 м
[Cu med, cong Ac trans Ci sp]
+24.4 +22.9 91 +32 +32 очень
душно
1010.1 1000.7 +22.7 +34.4
15 11.09 Ю 4 20 км 10/3 1200 м
[Cu med, cong Ci sp]
+26.6 +23.7 84 +36 +41 очень
душно
1011.1 1001.8
18 11.09 В 12 20 км 9/3 900 м
[Cu med, cong Ci sp]
+31.8 +23.5 62 +43 +43 опасность
перегрева
1009.0 999.8 +22.7 +31.8
21 11.09 В 14 20 км 6/0
[Ci]
+31.9 +21.7 55 +40 +40 очень
душно
1007.2 997.9
00 12.09 В 7 20 км 8/0
[Ci]
+29.0 +22.1 66 +37 +37 очень
душно
1008.0 998.7 +22.7 +32.7
03 12.09 нст 2 20 км ясно +26.6 +22.1 76 +34 +34 очень
душно
1008.7 999.4
06 12.09 ЮЗ 4 20 км ясно +24.4 +22.5 89 +32 +32 очень
душно
1008.5 999.2 +22.7 +32.7
12 12.09 ЮЗ 3 20 км 10/3 1350 м
[Sc As op]
+24.2 +23.2 94 +32 +32 очень
душно
1008.7 999.4 +20.8 +32.7
15 12.09 СЗ 3 20 км 10/1 1350 м
[Cu med, cong As op]
+28.4 +24.4 79 +40 +42 очень
душно
1010.1 1000.8
18 12.09 В 12 20 км 10/1 1350 м
[Cu med, cong Cs]
+32.4 +23.0 58 +43 +43 опасность
перегрева
1009.0 999.7 +22.3 +32.2
21 12.09 В 13 20 км 9/0
[As op]
+30.4 +21.9 60 +39 +39 очень
душно
1006.3 997.0
00 13.09 В 6 20 км 8/0
[As op Cs]
+27.5 +22.6 75 +36 +36 очень
душно
1007.9 998.5 +22.3 +32.6
03 13.09 ЮВ 5 20 км ясно +25.5 +22.8 85 +34 +34 очень
душно
1010.0 1000.7
06 13.09 СВ 3 20 км ясно +24.1 +22.2 89 +31 +31 очень
душно
1009.9 1000.6 +22.3 +32.6
12 13.09 Ю 5 20 км 8/0
[Ci fib]
+22.4 +21.8 96 +30 +30 очень
душно
1009.0 999.6 +20.9 +32.6
15 13.09 ЮВ 9 20 км 6/1 600 м
[Sc Ci fib]
+30.4 +21.4 59 +38 +39 очень
душно
1010.8 1001.5
18 13.09 В 10 20 км 4/4 1350 м
[Cu med, cong]
+32.8 +20.3 48 +39 +40 очень
душно
1009.4 1000.1 +20.9 +33.1
21 13.09 В 8 20 км 8/1 1350 м
[Cu med, cong Ci fib]
+32.3 +22.3 56 +42 +43 опасность
перегрева
1007.8 998.5
00 14.09 ЮЗ 3 20 км 6/1 1350 м
[Cu med, cong As op]
+27.7 +24.9 85 +40 +40 очень
душно
1008.5 999.1 +20.9 +33.4
12 14.09 штиль 0 20 км {дождь} 10/1 1350 м
[Cu med, cong As op]
+23.7 +23.0 96 +31 +31 очень
душно
1009.7 1000.3 +22.6 +33.4
15 14.09 штиль 0 50 км {морось} ?/? +27.3 +24.5 85 +39 +39 очень
душно
1011.7 1002.3
18 14.09 В 3 20 км 6/1 750 м
[Cu med, cong Ci fib]
+31.2 +24.0 66 +43 +57 опасность
перегрева
1009.3 1000.0 +22.6 +31.1
21 14.09 В 4 20 км 9/3 900 м
[Cu med, cong Ci sp]
+31.8 +23.0 60 +42 +46 опасность
перегрева
1008.4 999.1
00 15.09 С 15 20 км в посл. час гроза {дождь} 10/9 600 м
[Cb cap]
+25.1 +22.6 86 +33 +33 очень
душно
1009.6 1000.2 +22.6 +33.1
03 15.09 ЮВ 3 20 км {дождь} 10/4 1350 м
[Sc As op]
+24.2 +23.4 95 +32 +32 очень
душно
1012.1 1002.7
06 15.09 З 4 20 км 10/3 900 м
[Sc As op]
+23.7 +23.3 98 +32 +32 очень
душно
1010.7 1001.4 +22.6 +33.1
12 15.09 ЮЗ 2 20 км 9/3 600 м
[Cu med, cong Ci sp]
+24.3 +23.6 96 +33 +33 очень
душно
1010.0 1000.6 +22.6 +33.1
15 15.09 Ю 5 20 км 9/1 600 м
[Cu med, cong Ac trans Ci sp]
+28.0 +24.7 82 +40 +43 очень
душно
1001.1 1002.4
18 15.09 СЗ 6 20 км 9/5 600 м
[Cu med, cong Ci sp]
+30.0 +25.2 76 +44 +47 опасность
перегрева
1010.0 1000.8 +22.5 +31.6
21 15.09 Ю 12 7000 м гроза, ливневой дождь 10/10 300 м
[Cb cap]
+24.4 +22.9 91 +32 +32 очень
душно
1009.4 1000.0

 

Местоположение метеостанции Либерия (Коста-Рика): широта 10.62 долгота -85.43 высота над уровнем моря 80 м.

В архиве по умолчанию представлена погода в Либерии за последнюю неделю. Архивные данные за месяц целиком и за предыдущие месяцы, начиная с января 2011 года, Вы можете получить, выбрав интересующий диапазон дат из раскрывающегося списка и нажав кнопку "Ввод!".


*Определитесь, кто Вы:
робот инопланетянин человек

Внимание! Время в таблицах - всемирное. Для получения местного времени необходимо прибавить поправку, которая равна -6 ч.

Смотрите также архив погоды в соседних городах и на ближайших метеорологических станциях:

Погода в Ривасе (Никарагуа) (99 км)
Погода в Сан-Хосе (Коста-Рика) (151 км)
Погода в Сан-Хосе аэропорту (Коста-Рика) (159 км)
Погода в Хуигальпе (Никарагуа) (165 км)
Погода в Манагуа (Никарагуа) (188 км)
Погода в Блуфилдсе (Никарагуа) (237 км)
Погода в Пуэрто-Лимоне (Коста-Рика) (269 км)
Погода в Хинотеге (Никарагуа) (280 км)
Погода в Чинандеге (Никарагуа) (290 км)
Погода в Чолутеке (Гондурас) (354 км)

Пояснения к столбцам:

Ветер - указаны скорость ветра в м/с - средняя за 10 мин, порывы в срок и между сроками (в фигурных скобках) и направление, откуда дует ветер: С - северный, СВ - северо-восточный, В - восточный, ЮВ - юго-восточный, Ю - южный, ЮЗ - юго-западный, З - западный, СЗ - северо-западный.
Видимость - горизонтальная дальность видимости в метрах или километрах. При видимости от 1 до 10 км при отсутствии осадков обычно наблюдается дымка, при ухудшении видимости до 1 км и менее - туман. В сухую погоду видимость может ухудшаться дымом, пылью или мглою.
Явления - указаны атмосферные явления, наблюдавшиеся в срок или в последний час перед сроком; фигурными скобками обозначены явления, наблюдавшиеся между сроками (за 1-3 часа до срока); квадратными скобками обозначены град или гололедные отложения с указанием их диаметра в мм.
Облачность - указаны через наклонную черту общая и нижняя облачность в баллах и высота нижней границы облаков в метрах; квадратными скобками обозначены формы облаков: Ci - перистые, Cs - перисто-слоистые, Cc - перисто-кучевые, Ac - высококучевые, As - высокослоистые, Sc - слоисто-кучевые, Ns - слоисто-дождевые, Cu - кучевые, Cb - кучево-дождевые. Подробнее классификацию облаков см. в Атласе облаков (PDF).
T - Температура воздуха - температура, измеренная на высоте 2 м над землей.
Td - Температура точки росы - температура, при понижении до которой содержащийся в воздухе водяной пар достигнет насыщения.
f - Относительная влажность воздуха - влажноcть воздуха, измеренная на высоте 2 м над землей.
Te - Эффективная температура - температура, которую ощущает одетый по сезону человек в тени. Характеристика душности погоды. При расчете учитывается влияние влажности воздуха и скорости ветра на теплоощущения человека.
Tes - Эффективная температура на солнце - температура, которую ощущает человек, с поправкой на солнечный нагрев. Характеристика знойности погоды. Зависит от высоты солнца над горизонтом, облачности и скорости ветра. Ночью, в пасмурную погоду, а также при ветре 12 м/с и более поправка равна нулю.
P - Атмосферное давление - приведенное к уровню моря атмосферное давление.
Po - Атмосферное давление - измеренное на уровне метеостанции атмосферное давление.
Tmin - Минимальная температура - минимум температуры воздуха на высоте 2 м над землей.
Tmax - Максимальная температура - максимум температуры воздуха на высоте 2 м над землей.
R - Количество осадков - Количество выпавших осадков за период времени, мм. При наведении курсора мыши на число - период времени, за который выпало указанное количество осадков.
R24 - Количество осадков - Количество выпавших осадков за 24 часа, мм.
S - Снежный покров - Высота снежного покрова, см. При наведении курсора мыши на число - состояние снежного покрова и степень покрытия местности в баллах.